Weather History for EHEH - February, 2014

Change the Weather History Date:

Sunday, February 23, 2014

  Actual Average Record
Temperature  
Mean Temperature 46 °F -  
Max Temperature 54 °F 48 °F 60 °F (1999)
Min Temperature 37 °F 34 °F 22 °F (2013)
Degree Days  
Heating Degree Days 20    
Moisture  
Dew Point 38 °F    
Average Humidity 77    
Maximum Humidity 93    
Minimum Humidity 53    
Precipitation  
Precipitation 0.00 in - - ()
Sea Level Pressure  
Sea Level Pressure 30.06 in    
Wind  
Wind Speed 10 mph ()    
Max Wind Speed 18 mph    
Max Gust Speed -    
Visibility 7.6 miles    
Events      
Averages and records for this station are not official NWS values.
T = Trace of Precipitation, MM = Missing Value Source: Averaged Metar Reports

Daily Weather History Graph

Daily Weather History Graph

Search for Another Location

Airport or City:

Trip Planner

Search our weather history database for the weather conditions in past years. The results will help you decide how hot, cold, wet, or windy it might be!

Date:

Astronomy

Feb. 23, 2014 Rise Set
Actual Time 7:36 AM CET 6:07 PM CET
Civil Twilight 7:02 AM CET 6:41 PM CET
Nautical Twilight 6:24 AM CET 7:20 PM CET
Astronomical Twilight 5:45 AM CET 7:59 PM CET
Moon 2:38 AM CET (2/23) 11:34 AM CET (2/23)
Length of Visible Light 11h 39m
Length of Day
10h 31m
Last Quarter, 42% of the Moon is Illuminated
Feb 23
Last Quarter
Mar 1
New
Mar 8
First Quarter
Mar 16
Full
Mar 24
Last Quarter

Hourly Weather History & Observations

Time (CET) Temp. Windchill Dew Point Humidity Pressure Visibility Wind Dir Wind Speed Gust Speed Precip Events Conditions
12:00 AM 38 °F - 35 °F 86% 30.07 in 14 mi South 8.9 mph - -  
12:25 AM 37.4 °F 31.4 °F 35.6 °F 93% 30.06 in 6.2 mi South 8.1 mph - N/A   Unknown
12:55 AM 37.4 °F 31.4 °F 35.6 °F 93% 30.06 in 6.2 mi South 8.1 mph - N/A   Unknown
1:00 AM 38 °F - 35 °F 83% 30.08 in 12 mi South 8.9 mph - -   Partly Cloudy
1:25 AM 37.4 °F 30.8 °F 35.6 °F 93% 30.06 in 6.2 mi South 9.2 mph - N/A   Unknown
1:55 AM 37.4 °F 30.3 °F 35.6 °F 93% 30.06 in 6.2 mi South 10.4 mph - N/A   Partly Cloudy
2:00 AM 38 °F - 35 °F 85% 30.08 in 11 mi South 8.9 mph - -  
2:25 AM 37.4 °F 30.3 °F 35.6 °F 93% 30.06 in 6.2 mi South 10.4 mph - N/A   Unknown
2:55 AM 37.4 °F 30.3 °F 35.6 °F 93% 30.06 in 6.2 mi South 10.4 mph - N/A   Unknown
3:00 AM 38 °F - 35 °F 86% 30.08 in 11 mi South 8.9 mph - -  
3:25 AM 37.4 °F 30.8 °F 35.6 °F 93% 30.06 in 6.2 mi South 9.2 mph - N/A   Unknown
3:55 AM 37.4 °F 30.8 °F 35.6 °F 93% 30.06 in 6.2 mi South 9.2 mph - N/A   Unknown
4:00 AM 38 °F - 35 °F 86% 30.08 in 12 mi South 11.2 mph - -  
4:25 AM 37.4 °F 30.3 °F 35.6 °F 93% 30.06 in 6.2 mi South 10.4 mph - N/A   Unknown
4:55 AM 37.4 °F 30.3 °F 35.6 °F 93% 30.06 in 6.2 mi South 10.4 mph - N/A   Unknown
5:00 AM 38 °F - 35 °F 87% 30.07 in 11 mi South 11.2 mph - -  
5:25 AM 37.4 °F 30.8 °F 35.6 °F 93% 30.04 in 6.2 mi South 9.2 mph - N/A   Partly Cloudy
5:55 AM 37.4 °F 30.8 °F 35.6 °F 93% 30.06 in 6.2 mi South 9.2 mph - N/A   Unknown
6:00 AM 38 °F - 35 °F 85% 30.07 in 11 mi South 8.9 mph - -  
6:25 AM 37.4 °F 30.8 °F 35.6 °F 93% 30.06 in 6.2 mi South 9.2 mph - N/A   Partly Cloudy
6:55 AM 37.4 °F 30.8 °F 35.6 °F 93% 30.06 in 6.2 mi South 9.2 mph - N/A   Unknown
7:00 AM 37 °F - 35 °F 88% 30.07 in 13 mi South 8.9 mph - -   Partly Cloudy
7:25 AM 37.4 °F 31.4 °F 35.6 °F 93% 30.06 in 6.2 mi South 8.1 mph - N/A   Unknown
7:55 AM 39.2 °F 33.0 °F 35.6 °F 87% 30.06 in 6.2 mi South 9.2 mph - N/A   Unknown
8:00 AM 39 °F - 35 °F 81% 30.08 in 19 mi South 11.2 mph - -  
8:25 AM 41.0 °F 34.3 °F 35.6 °F 81% 30.06 in 6.2 mi South 11.5 mph - N/A   Partly Cloudy
8:55 AM 41.0 °F 33.9 °F 35.6 °F 81% 30.06 in 6.2 mi South 12.7 mph - N/A   Unknown
9:00 AM 41 °F - 37 °F 80% 30.09 in 19 mi South 11.2 mph - -  
9:25 AM 42.8 °F 36.6 °F 37.4 °F 81% 30.06 in 6.2 mi South 11.5 mph - N/A   Partly Cloudy
9:55 AM 44.6 °F 37.8 °F 39.2 °F 81% 30.06 in 6.2 mi South 15.0 mph - N/A   Partly Cloudy
10:00 AM 46 °F - 39 °F 69% 30.09 in 25 mi South 15.7 mph - -   Scattered Clouds
10:25 AM 46.4 °F 39.2 °F 39.2 °F 76% 30.06 in 6.2 mi South 18.4 mph - N/A   Scattered Clouds
10:55 AM 48.2 °F - 39.2 °F 71% 30.06 in 6.2 mi South 16.1 mph - N/A   Mostly Cloudy
11:00 AM 47 °F - 40 °F 68% 30.09 in 19 mi South 13.4 mph - -   Scattered Clouds
11:25 AM 48.2 °F - 39.2 °F 71% 30.06 in 6.2 mi South 15.0 mph - N/A   Scattered Clouds
11:55 AM 50.0 °F - 41.0 °F 71% 30.06 in 6.2 mi South 16.1 mph - N/A   Unknown
12:00 PM 50 °F - 41 °F 62% 30.08 in 28 mi South 15.7 mph - -   Partly Cloudy
12:25 PM 51.8 °F - 41.0 °F 67% 30.06 in 6.2 mi South 15.0 mph - N/A   Partly Cloudy
12:55 PM 51.8 °F - 41.0 °F 67% 30.06 in 6.2 mi South 16.1 mph - N/A   Partly Cloudy
1:00 PM 52 °F - 41 °F 56% 30.07 in 22 mi South 15.7 mph - -   Partly Cloudy
1:25 PM 51.8 °F - 41.0 °F 67% 30.04 in 6.2 mi South 13.8 mph - N/A   Mostly Cloudy
1:55 PM 51.8 °F - 41.0 °F 67% 30.04 in 6.2 mi South 12.7 mph - N/A   Partly Cloudy
2:00 PM 53 °F - 41 °F 54% 30.06 in 22 mi South 15.7 mph - -   Scattered Clouds
2:25 PM 53.6 °F - 42.8 °F 67% 30.04 in 6.2 mi South 12.7 mph - N/A   Partly Cloudy
2:55 PM 51.8 °F - 41.0 °F 67% 30.04 in 6.2 mi South 15.0 mph - N/A   Mostly Cloudy
3:00 PM 53 °F - 42 °F 57% 30.06 in 22 mi South 13.4 mph - -   Scattered Clouds
3:25 PM 53.6 °F - 42.8 °F 67% 30.04 in 6.2 mi South 12.7 mph - N/A   Scattered Clouds
3:55 PM 53.6 °F - 42.8 °F 67% 30.04 in 6.2 mi South 12.7 mph - N/A   Unknown
4:00 PM 54 °F - 42 °F 54% 30.05 in 22 mi South 11.2 mph - -   Scattered Clouds
4:20 PM 53.6 °F - 41.0 °F 62% 30.04 in 6.2 mi South 13.8 mph - N/A   Partly Cloudy
4:25 PM 53.6 °F - 41.0 °F 62% 30.04 in 6.2 mi South 13.8 mph - N/A   Scattered Clouds
4:55 PM 53.6 °F - 41.0 °F 62% 30.04 in 6.2 mi South 12.7 mph - N/A   Partly Cloudy
5:00 PM 53 °F - 41 °F 53% 30.05 in 25 mi South 13.4 mph - -   Scattered Clouds
5:25 PM 51.8 °F - 41.0 °F 67% 30.04 in 6.2 mi South 13.8 mph - N/A   Unknown
5:55 PM 50.0 °F - 41.0 °F 71% 30.04 in 6.2 mi South 10.4 mph - N/A   Unknown
6:00 PM 50 °F - 41 °F 61% 30.05 in 28 mi South 11.2 mph - -  
6:25 PM 50.0 °F - 41.0 °F 71% 30.04 in 6.2 mi South 9.2 mph - N/A   Unknown
6:55 PM 48.2 °F - 41.0 °F 76% 30.04 in 6.2 mi South 9.2 mph - N/A   Unknown
7:00 PM 49 °F - 40 °F 62% 30.06 in 28 mi South 11.2 mph - -   Partly Cloudy
7:25 PM 48.2 °F - 39.2 °F 71% 30.04 in 6.2 mi South 10.4 mph - N/A   Unknown
7:55 PM 46.4 °F 42.4 °F 39.2 °F 76% 30.04 in 6.2 mi South 8.1 mph - N/A   Unknown
8:00 PM 47 °F - 40 °F 67% 30.06 in 28 mi South 8.9 mph - -   Scattered Clouds
8:25 PM 46.4 °F 42.4 °F 39.2 °F 76% 30.04 in 6.2 mi South 8.1 mph - N/A   Partly Cloudy
8:55 PM 46.4 °F 41.9 °F 39.2 °F 76% 30.04 in 6.2 mi South 9.2 mph - N/A   Unknown
9:00 PM 46 °F - 39 °F 69% 30.06 in 28 mi South 8.9 mph - -  
9:25 PM 46.4 °F 42.4 °F 39.2 °F 76% 30.04 in 6.2 mi South 8.1 mph - N/A   Unknown
9:55 PM 46.4 °F 41.9 °F 39.2 °F 76% 30.04 in 6.2 mi South 9.2 mph - N/A   Partly Cloudy
10:00 PM 45 °F - 39 °F 71% 30.06 in 28 mi South 8.9 mph - -   Scattered Clouds
10:25 PM 44.6 °F 40.7 °F 39.2 °F 81% 30.04 in 6.2 mi South 6.9 mph - N/A   Unknown
10:55 PM 44.6 °F 40.2 °F 39.2 °F 81% 30.04 in 6.2 mi SSE 8.1 mph - N/A   Scattered Clouds
11:00 PM 44 °F - 38 °F 73% 30.05 in 22 mi SSE 6.7 mph - -   Scattered Clouds
11:25 PM 42.8 °F 38.0 °F 37.4 °F 81% 30.04 in 6.2 mi SSE 8.1 mph - N/A   Partly Cloudy
11:55 PM 41.0 °F 37.1 °F 37.4 °F 87% 30.01 in 6.2 mi SE 5.8 mph - N/A   Unknown